Location: Ústí nad Labem
(50.6611°N, 14.0531°E)
Time: 21:55:50
(UTC+02:00)

Envisat - Pass Details

Date: 02 March 2024
Orbit: 762 x 764 km, 98.3° (Epoch: 13 April)

Event Time Altitude Azimuth Distance (km) Brightness Sun altitude
Rises 05:41:29 0° 2° (N) 3,244 6.3 -10.9°
Reaches altitude 10° 05:45:04 10° 335° (NNW) 2,312 5.3 -10.3°
Maximum altitude 05:47:17 13° 309° (NW) 2,107 4.8 -10.0°
Enters shadow 05:49:06 11° 287° (WNW) 2,240 4.8 -9.7°
